Location: Zagreb
(45.8000°N, 16.0000°E)
Time: 20:01:12
(UTC+01:00)

DX 1 - Pass Details

Date: 01 November 2020
Orbit: 619 x 630 km, 98.5° (Epoch: 01 December)

Event Time Altitude Azimuth Distance (km) Brightness Sun altitude
Rises 19:55:11 0° 357° (N) 2,911 ? -34.0°
Reaches altitude 10° 19:58:15 10° 333° (NNW) 2,001 ? -34.5°
Maximum altitude 20:00:34 14° 300° (WNW) 1,726 ? -34.9°
Drops below altitude 10° 20:02:53 10° 268° (W) 1,996 ? -35.3°
Sets 20:05:58 0° 244° (WSW) 2,900 ? -35.8°
